CTLRVL-WX Weather Reports


Display with metric or nautical units.
time (UTC)temp
F
wind
direction
speed
MPH
gust
MPH
rain 1hr
in
rain 24hr
in
rain mn
in
humidity
%
barometer
mb
20260901153057 83 240 7.0 0.0 0.00 0.00 0.00 84 989.3
20260901151558 82 245 5.0 0.0 0.00 0.00 0.00 84 989.3
20260901150057 81 250 5.0 0.0 0.00 0.00 0.00 84 989.3
20260901144557 79 247 5.0 0.0 0.00 0.00 0.00 89 988.5
20260901143102 79 237 4.0 0.0 0.00 0.00 0.00 85 989.7
20260901141602 79 241 4.0 0.0 0.00 0.00 0.00 82 990.3
20260901134603 76 224 6.0 0.0 0.00 0.00 0.00 85 989.5
20260901133102 76 215 6.0 0.0 0.00 0.00 0.00 85 989.5
20260901131601 75 203 7.0 0.0 0.00 0.00 0.00 85 989.5
20260901130106 75 195 6.0 0.0 0.00 0.00 0.00 85 989.5
20260901124623 74 195 4.0 0.0 0.00 0.00 0.00 91 989.0
20260901123102 73 184 3.0 0.0 0.00 0.00 0.00 89 988.8
20260901121601 71 180 3.0 0.0 0.00 0.00 0.00 89 988.8
20260901120109 70 180 4.0 0.0 0.00 0.00 0.00 89 988.8
20260901114602 69 180 4.0 0.0 0.00 0.00 0.00 89 988.0
20260901113107 69 186 4.0 0.0 0.00 0.00 0.00 88 988.4
20260901111602 69 186 4.0 0.0 0.00 0.00 0.00 88 988.4
20260901110106 69 183 4.0 0.0 0.00 0.00 0.00 88 988.4
20260901104605 69 188 4.0 0.0 0.00 0.00 0.00 87 988.8
20260901103106 69 188 4.0 0.0 0.00 0.00 0.00 87 988.8
20260901101609 70 201 5.0 0.0 0.00 0.00 0.00 87 988.8
20260901100109 70 196 4.0 0.0 0.00 0.00 0.00 87 988.8
20260901094602 70 208 5.0 0.0 0.00 0.00 0.00 87 987.8
20260901093107 71 204 5.0 0.0 0.00 0.00 0.00 87 988.1
20260901091608 71 210 5.0 0.0 0.00 0.00 0.00 87 988.1
20260901090107 71 213 5.0 0.0 0.00 0.00 0.00 87 988.1
20260901084601 71 215 6.0 0.0 0.00 0.00 0.00 88 987.7
20260901083106 71 212 7.0 0.0 0.00 0.00 0.00 88 987.3
20260901081607 71 220 6.0 0.0 0.00 0.00 0.00 88 987.3
20260901074607 71 214 6.0 0.0 0.00 0.00 0.00 90 987.4
20260901073105 71 214 5.0 0.0 0.00 0.00 0.00 90 987.4
20260901071601 72 219 6.0 0.0 0.00 0.00 0.00 90 987.4
20260901064608 72 225 6.0 0.0 0.00 0.00 0.00 89 987.7
20260901063055 72 225 6.0 0.0 0.00 0.00 0.00 89 987.7
20260901061603 72 223 7.0 0.0 0.00 0.00 0.00 89 987.7
20260901060106 72 214 7.0 0.0 0.00 0.00 0.00 89 987.7
20260901054606 72 211 7.0 0.0 0.00 0.00 0.00 87 987.9
20260901053107 71 206 5.0 0.0 0.00 0.00 0.00 88 987.6
20260901051601 71 211 5.0 0.0 0.00 0.00 0.00 88 987.6
20260901050112 72 221 5.0 0.0 0.00 0.00 0.00 88 987.6
20260901044606 72 213 5.0 0.0 0.00 0.00 0.00 84 987.9
20260901043101 72 215 4.0 0.0 0.00 0.00 0.00 86 987.7
20260901041605 72 221 4.0 0.0 0.00 0.00 0.00 86 987.7
20260901040110 72 228 5.0 0.0 0.00 0.00 0.00 86 987.7
20260901034605 72 223 5.0 0.0 0.00 0.00 0.00 83 987.7
20260901033105 72 237 3.0 0.0 0.00 0.00 0.00 87 987.9
20260901031605 72 225 4.0 0.0 0.00 0.00 0.00 87 987.8
20260901030105 72 210 5.0 0.0 0.00 0.00 0.00 87 987.8
20260901024605 73 216 5.0 0.0 0.00 0.00 0.00 83 988.9
20260901023108 73 223 4.0 0.0 0.00 0.00 0.00 83 988.3
20260901021604 74 212 9.0 0.0 0.00 0.00 0.00 83 988.3
20260901020110 74 216 8.0 0.0 0.00 0.00 0.00 83 988.3
20260901014604 74 207 7.0 0.0 0.00 0.00 0.00 87 988.4
20260901013102 74 213 6.0 0.0 0.00 0.00 0.00 87 988.4
20260901011604 73 215 5.0 0.0 0.00 0.00 0.00 87 988.4
20260901010106 73 209 4.0 0.0 0.00 0.00 0.00 87 988.4
20260901004604 74 220 5.0 0.0 0.00 0.00 0.00 82 988.4
20260901003103 74 232 5.0 0.0 0.00 0.00 0.00 82 987.9
20260901001603 76 219 6.0 0.0 0.00 0.00 0.00 82 987.9
20260831234605 77 223 5.0 0.0 0.00 0.01 0.01 74 988.1
20260831233105 78 214 5.0 0.0 0.00 0.01 0.01 68 987.8
20260831231605 80 230 6.0 0.0 0.00 0.01 0.01 68 987.8
20260831230107 81 222 6.0 0.0 0.00 0.01 0.01 68 987.8
20260831224605 82 217 7.0 0.0 0.00 0.01 0.01 64 988.2
20260831223106 84 215 11.0 0.0 0.00 0.01 0.01 59 988.6
20260831221602 84 215 12.0 0.0 0.00 0.01 0.01 59 988.6
20260831220105 85 212 13.0 0.0 0.00 0.01 0.01 59 988.6
20260831214604 85 207 13.0 0.0 0.00 0.01 0.01 61 989.1
20260831213102 84 203 12.0 0.0 0.00 0.01 0.01 57 988.6
20260831211604 86 206 13.0 0.0 0.00 0.01 0.01 57 988.7
20260831210105 86 203 13.0 0.0 0.00 0.01 0.01 57 988.7
20260831204602 86 202 12.0 0.0 0.00 0.01 0.01 65 989.7
20260831203102 85 202 12.0 0.0 0.00 0.01 0.01 75 989.2
20260831201604 81 194 11.0 0.0 0.00 0.01 0.01 75 989.1
20260831200105 80 192 12.0 0.0 0.00 0.01 0.01 80 989.5
20260831194604 80 199 12.0 0.0 0.01 0.01 0.01 72 990.2
20260831193104 80 207 12.0 0.0 0.01 0.01 0.01 72 990.2
20260831191604 78 240 4.0 0.0 0.00 0.01 0.01 72 990.2
20260831190106 80 209 7.0 0.0 0.00 0.01 0.01 65 989.6
20260831184602 82 198 11.0 0.0 0.00 0.00 0.00 60 989.9
20260831183103 86 189 12.0 0.0 0.00 0.00 0.00 60 989.9
20260831181603 85 184 12.0 0.0 0.00 0.00 0.00 60 989.9
20260831180104 84 190 11.0 0.0 0.00 0.00 0.00 60 989.9
20260831174603 84 199 12.0 0.0 0.00 0.00 0.00 62 989.5
20260831173103 84 200 12.0 0.0 0.00 0.00 0.00 62 989.5
20260831171603 83 206 12.0 0.0 0.00 0.00 0.00 62 989.5
20260831170103 82 201 11.0 0.0 0.00 0.00 0.00 62 989.5
20260831164603 81 198 12.0 0.0 0.00 0.00 0.00 70 991.3
20260831163304 0 0 0.0 0.0 0.00 0.00 0.00 100
20260831161932 0 0 0.0 0.0 0.00 0.00 0.00 100
20260831154602 80 203 14.0 0.0 0.00 0.00 0.00 68 991.4